Back to catalog

AUDACY ZERO

AliveCommunicationsSSO
NORAD 43810·PAYLOAD·🇺🇸 United States
This satellite name has not been confirmed by official sources yet.

Launched Dec 3, 2018 from Vandenberg Space Force Base

Loading…

Next Passes (next 24 hours)

TLE

FreshSource: Space-Track

Epoch: Sep 14, 2026, 13:10 UTC

1 43810U 18099BE  26257.54863662  .00002042  00000-0  12537-3 0  9994
2 43810  97.3815 294.2418 0008247  46.1172 314.0738 15.11156053425503

Track AUDACY ZERO in real time with AllMySat

Download on the App Store